AL7PB Weather Reports


time (UTC)temp
C
wind
direction
speed
KPH
gust
KPH
rain 1hr
cm
rain 24hr
cm
rain mn
cm
humidity
%
barometer
mb
20260506102917 10 0 0.0 0.0 0.00 0.00 0.00 88 1010.9
20260506102014 10 0 0.0 0.0 0.00 0.00 0.00 88 1010.8
20260506100903 10 0 0.0 0.0 0.00 0.00 0.00 88 1010.7
20260506100214 10 0 0.0 0.0 0.00 0.00 0.00 88 1010.4
20260506095615 10 0 0.0 0.0 0.00 0.00 0.00 89 1010.3
20260506094713 10 0 0.0 0.0 0.00 0.00 0.00 89 1010.0
20260506093603 10 0 0.0 0.0 0.00 0.00 0.00 89 1010.0
20260506092912 10 0 0.0 0.0 0.00 0.00 0.00 89 1010.0
20260506091803 10 0 0.0 0.0 0.00 0.00 0.00 89 1010.0
20260506091117 10 0 0.0 0.0 0.00 0.00 0.00 89 1009.9
20260506090214 10 0 0.0 0.0 0.00 0.00 0.00 89 1009.8
20260506085616 10 0 0.0 0.0 0.00 0.00 0.00 89 1009.8
20260506084503 10 0 0.0 0.0 0.00 0.00 0.00 89 1009.8
20260506083816 10 0 0.0 0.0 0.00 0.00 0.00 89 1009.4
20260506082703 10 0 0.0 0.0 0.00 0.00 0.00 89 1009.6
20260506081803 10 0 0.0 0.0 0.00 0.00 0.00 88 1009.6
20260506080903 10 0 0.0 0.0 0.00 0.00 0.00 88 1009.7
20260506080215 10 0 0.0 0.0 0.00 0.00 0.00 88 1009.6
20260506072913 11 0 0.0 0.0 0.00 0.00 0.00 86 1009.7
20260506072016 11 0 0.0 0.0 0.00 0.00 0.00 86 1009.6
20260506070903 11 0 0.0 0.0 0.00 0.00 0.00 86 1009.7
20260506070216 11 0 0.0 0.0 0.00 0.00 0.00 85 1009.7
20260506061803 12 0 0.0 0.0 0.00 0.00 0.00 84 1009.4
20260506060903 12 0 0.0 0.0 0.00 0.00 0.00 83 1009.3
20260506051114 13 0 0.0 0.0 0.00 0.00 0.00 78 1008.3
20260506044503 14 0 0.0 0.0 0.00 0.00 0.00 75 1008.0
20260506043603 15 0 0.0 0.0 0.00 0.00 0.00 74 1008.2
20260506042703 15 0 0.0 0.0 0.00 0.00 0.00 73 1008.2
20260506041803 15 0 0.0 0.0 0.00 0.00 0.00 71 1008.2
20260506041115 16 0 0.0 0.0 0.00 0.00 0.00 71 1008.2
20260506040212 16 0 0.0 0.0 0.00 0.00 0.00 69 1008.2
20260506035403 16 0 0.0 0.0 0.00 0.00 0.00 68 1008.2
20260506034716 16 0 0.0 0.0 0.00 0.00 0.00 68 1008.2
20260506033814 17 0 0.0 0.0 0.00 0.00 0.00 66 1008.0
20260506032916 17 0 0.0 0.0 0.00 0.00 0.00 65 1007.9
20260506031803 18 0 0.0 0.0 0.00 0.00 0.00 62 1007.8
20260506030903 19 0 0.0 0.0 0.00 0.00 0.00 61 1007.6
20260506030213 19 0 0.0 0.0 0.00 0.00 0.00 60 1007.6
20260506025403 19 0 0.0 0.0 0.00 0.00 0.00 61 1007.4
20260506024717 20 0 0.0 0.0 0.00 0.00 0.00 60 1007.3
20260506023814 20 0 0.0 0.0 0.00 0.00 0.00 60 1007.1
20260506022703 20 0 0.0 0.0 0.00 0.00 0.00 59 1006.7
20260506022014 20 0 0.0 0.0 0.00 0.00 0.00 58 1006.7
20260506020903 21 0 0.0 0.0 0.00 0.00 0.00 57 1006.6
20260506020003 21 0 0.0 0.0 0.00 0.00 0.00 57 1006.4
20260506015615 21 0 0.0 0.0 0.00 0.00 0.00 57 1006.3
20260506014503 21 0 0.0 0.0 0.00 0.00 0.00 56 1006.3
20260506013815 22 0 0.0 0.0 0.00 0.00 0.00 56 1006.0
20260506012917 22 0 0.0 0.0 0.00 0.00 0.00 54 1005.7
20260506012015 23 0 0.0 0.0 0.00 0.00 0.00 52 1005.6
20260506010903 23 0 0.0 0.0 0.00 0.00 0.00 51 1005.4
20260506010214 23 0 0.0 0.0 0.00 0.00 0.00 52 1005.2
20260506005403 23 0 0.0 0.0 0.00 0.00 0.00 51 1005.0
20260506004503 24 0 0.0 0.0 0.00 0.00 0.00 51 1005.0
20260506003603 25 0 0.0 0.0 0.00 0.00 0.00 50 1004.9
20260506002913 25 0 0.0 0.0 0.00 0.00 0.00 49 1004.7
20260506002015 25 0 0.0 0.0 0.00 0.00 0.00 48 1004.4
20260506001113 25 0 0.0 0.0 0.00 0.00 0.00 48 1004.4
20260506000215 26 0 0.0 0.0 0.00 0.00 0.00 48 1004.5
20260505235617 26 0 0.0 0.0 0.00 0.00 0.00 48 1004.2
20260505234714 27 0 0.0 0.0 0.00 0.00 0.00 46 1003.6
20260505233603 27 0 0.0 0.0 0.00 0.00 0.00 43 1003.8
20260505232913 28 0 0.0 0.0 0.00 0.00 0.00 42 1003.9
20260505232016 29 0 0.0 0.0 0.00 0.00 0.00 37 1003.3
20260505231113 29 0 0.0 0.0 0.00 0.00 0.00 36 1003.6
20260505230216 29 0 0.0 0.0 0.00 0.00 0.00 35 1003.5
20260505225617 30 0 0.0 0.0 0.00 0.00 0.00 35 1004.0
20260505224503 30 0 0.0 0.0 0.00 0.00 0.00 35 1003.9
20260505223817 30 0 0.0 0.0 0.00 0.00 0.00 34 1003.8
20260505222703 31 0 0.0 0.0 0.00 0.00 0.00 32 1003.3
20260505221803 31 0 0.0 0.0 0.00 0.00 0.00 31 1003.1
20260505221114 31 0 0.0 0.0 0.00 0.00 0.00 31 1002.9
20260505220003 31 0 0.0 0.0 0.00 0.00 0.00 30 1002.9
20260505215403 31 0 0.0 0.0 0.00 0.00 0.00 29 1003.1
20260505214503 33 0 0.0 0.0 0.00 0.00 0.00 25 1002.9
20260505213603 33 0 0.0 0.0 0.00 0.00 0.00 26 1002.9
20260505212915 33 0 0.0 0.0 0.00 0.00 0.00 24 1002.9
20260505211803 33 0 0.0 0.0 0.00 0.00 0.00 25 1003.1
20260505210903 34 0 0.0 0.0 0.00 0.00 0.00 23 1003.1
20260505210003 34 0 0.0 0.0 0.00 0.00 0.00 21 1003.3
20260505205613 35 0 0.0 0.0 0.00 0.00 0.00 22 1003.2
20260505204716 34 0 0.0 0.0 0.00 0.00 0.00 23 1003.2
20260505203603 34 0 0.0 0.0 0.00 0.00 0.00 23 1003.3
20260505202703 33 0 0.0 0.0 0.00 0.00 0.00 25 1003.2
20260505201803 33 0 0.0 0.0 0.00 0.00 0.00 25 1003.5
20260505201115 33 0 0.0 0.0 0.00 0.00 0.00 24 1003.7
20260505200217 33 0 0.0 0.0 0.00 0.00 0.00 26 1003.8
20260505195403 33 0 0.0 0.0 0.00 0.00 0.00 25 1003.8
20260505194716 33 0 0.0 0.0 0.00 0.00 0.00 26 1003.9
20260505193814 33 0 0.0 0.0 0.00 0.00 0.00 26 1004.0
20260505192703 33 0 0.0 0.0 0.00 0.00 0.00 29 1004.1
20260505192013 33 0 0.0 0.0 0.00 0.00 0.00 29 1004.2
20260505190903 32 0 0.0 0.0 0.00 0.00 0.00 30 1004.3
20260505190003 32 0 0.0 0.0 0.00 0.00 0.00 32 1004.3
20260505185615 32 0 0.0 0.0 0.00 0.00 0.00 33 1004.3
20260505184717 32 0 0.0 0.0 0.00 0.00 0.00 33 1004.5
20260505183603 31 0 0.0 0.0 0.00 0.00 0.00 39 1004.6
20260505182703 31 0 0.0 0.0 0.00 0.00 0.00 38 1004.9
20260505181803 31 0 0.0 0.0 0.00 0.00 0.00 39 1005.0
20260505180903 30 0 0.0 0.0 0.00 0.00 0.00 42 1005.1
20260505180003 30 0 0.0 0.0 0.00 0.00 0.00 42 1005.1
20260505175615 30 0 0.0 0.0 0.00 0.00 0.00 43 1005.2
20260505174503 30 0 0.0 0.0 0.00 0.00 0.00 46 1005.1
20260505173815 30 0 0.0 0.0 0.00 0.00 0.00 46 1005.1
20260505172917 29 0 0.0 0.0 0.00 0.00 0.00 47 1005.1
20260505171803 29 0 0.0 0.0 0.00 0.00 0.00 48 1005.1
20260505171117 28 0 0.0 0.0 0.00 0.00 0.00 48 1005.2
20260505170003 28 0 0.0 0.0 0.00 0.00 0.00 54 1005.3
20260505165403 28 0 0.0 0.0 0.00 0.00 0.00 54 1005.2
20260505164503 27 0 0.0 0.0 0.00 0.00 0.00 55 1005.1
20260505163816 27 0 0.0 0.0 0.00 0.00 0.00 57 1005.2
20260505162703 27 0 0.0 0.0 0.00 0.00 0.00 57 1005.3
20260505162015 26 0 0.0 0.0 0.00 0.00 0.00 58 1005.3
20260505160903 26 0 0.0 0.0 0.00 0.00 0.00 60 1005.4
20260505152703 25 0 0.0 0.0 0.00 0.00 0.00 71 1005.0
20260505151803 25 0 0.0 0.0 0.00 0.00 0.00 70 1004.9
20260505151113 25 0 0.0 0.0 0.00 0.00 0.00 70 1004.9
20260505150216 24 0 0.0 0.0 0.00 0.00 0.00 71 1004.8
20260505140216 22 0 0.0 0.0 0.00 0.00 0.00 76 1004.6
20260505124503 20 0 0.0 0.0 0.00 0.00 0.00 83 1003.7
20260505123813 20 0 0.0 0.0 0.00 0.00 0.00 83 1003.4
20260505122915 20 0 0.0 0.0 0.00 0.00 0.00 83 1003.6
20260505122013 20 0 0.0 0.0 0.00 0.00 0.00 84 1003.3
20260505120903 20 0 0.0 0.0 0.00 0.00 0.00 84 1003.2
20260505120004 20 0 0.0 0.0 0.00 0.00 0.00 84 1003.2
20260505115614 20 0 0.0 0.0 0.00 0.00 0.00 84 1003.2
20260505114716 20 0 0.0 0.0 0.00 0.00 0.00 84 1003.2
20260505113814 20 0 0.0 0.0 0.00 0.00 0.00 84 1003.1
20260505112703 20 0 0.0 0.0 0.00 0.00 0.00 83 1003.0
20260505112013 20 0 0.0 1.6 0.00 0.00 0.00 83 1003.0
20260505110903 20 0 0.0 0.0 0.00 0.00 0.00 82 1002.8
20260505110213 20 0 0.0 0.0 0.00 0.00 0.00 82 1002.8